Wind_Speed
25 25 25 25 26 27 29 29 28 25 22 19 18 17 16 15 14 13 12 12 12 12 13 13 13 13 12 13 14 15 16 16 17 17 18 18 18 19 18 18 17 17 18 18
28 27 27 26 27 28 29 29 28 25 22 20 19 18 17 17 15 15 14 14 13 13 14 14 14 14 14 14 15 16 17 17 18 18 18 19 19 19 20 20 20 20 20 20
29 28 28 27 25 27 27 27 26 25 24 22 21 21 19 18 18 17 16 16 15 16 16 17 16 16 16 16 17 17 17 18 18 19 20 20 21 21 22 22 22 22 22 23
29 28 29 26 24 25 26 27 26 25 24 24 22 22 21 20 19 19 19 18 18 18 19 19 19 18 18 18 18 18 19 19 20 20 21 21 22 23 24 24 24 24 25 25
28 28 27 24 23 23 24 24 24 25 25 24 23 23 23 22 22 21 21 20 21 22 21 21 21 20 20 19 19 20 20 20 21 22 22 23 24 24 25 25 26 26 26 27
26 26 25 23 23 23 23 23 23 24 24 24 23 24 23 24 24 24 23 23 23 24 24 23 23 22 22 21 21 21 22 22 23 23 24 24 25 25 26 27 27 27 27 28
23 23 23 23 22 23 23 23 23 24 25 25 24 23 24 24 24 24 25 25 25 25 26 26 25 24 24 23 23 23 24 24 24 25 25 26 26 27 27 28 28 28 28 29
21 21 21 21 20 21 21 21 22 23 24 24 24 23 24 24 25 25 25 26 26 26 27 28 28 26 26 25 25 26 25 25 25 25 26 27 28 28 28 28 29 29 30 31
20 19 19 19 20 19 19 20 20 22 23 23 23 23 24 25 26 27 26 25 27 28 27 28 28 28 27 27 28 27 27 27 27 27 27 28 29 28 28 29 29 30 31 33
17 17 17 17 18 18 18 19 19 20 21 21 22 23 24 25 25 26 27 26 27 28 29 29 29 29 28 29 28 29 29 29 30 30 29 29 30 30 30 31 31 32 34 34
16 16 16 16 17 17 18 19 19 19 20 21 21 22 23 23 25 25 25 27 26 28 29 28 29 29 29 29 29 29 29 28 29 29 29 30 31 32 33 33 33 33 33 35
14 15 15 15 16 17 18 18 19 20 21 22 21 22 22 22 23 24 24 25 25 26 28 28 29 30 30 30 30 30 30 30 30 29 29 30 31 32 33 34 35 34 34 35
14 14 14 14 14 15 15 15 17 18 18 19 20 21 21 21 22 22 23 24 24 25 27 28 29 30 31 31 30 29 29 29 30 30 31 31 31 32 33 34 35 36 36 37
12 13 13 13 13 13 12 12 13 15 17 18 19 20 20 20 20 21 22 22 24 25 26 27 28 29 29 30 30 29 29 30 31 32 32 32 33 34 35 36 38 39 39 40
12 12 12 12 11 10 10 11 13 15 17 17 17 16 16 17 18 19 20 22 22 23 24 26 26 26 27 28 27 27 29 29 30 31 32 33 34 36 37 38 39 40 41 42
12 12 12 12 11 10 10 10 11 13 14 15 15 16 16 16 17 17 19 19 20 21 22 24 25 26 26 27 27 27 28 29 30 31 32 34 35 36 37 38 39 40 42 43
13 12 12 12 11 10 10 10 10 10 13 14 14 14 14 14 14 14 15 17 19 20 21 22 24 25 25 26 26 27 28 30 31 33 34 35 36 36 37 38 39 40 42 43
14 13 13 11 11 11 10 10 10 10 10 11 11 11 11 12 13 15 16 17 18 19 20 21 23 24 24 25 26 28 29 30 32 33 34 35 36 37 37 38 39 40 42 44
12 12 11 11 10 11 11 11 11 11 10 11 10 10 10 11 13 15 16 17 18 19 21 22 23 23 24 26 27 28 30 31 32 33 33 34 35 37 38 40 41 43 44 45
12 12 11 11 11 11 10 10 10 10 10 10 11 12 12 13 14 15 15 17 18 19 20 22 23 24 25 26 28 29 30 32 33 34 35 36 38 39 41 42 42 44 45 45
12 12 12 11 11 11 10 10 10 10 11 11 12 13 14 15 16 17 18 19 20 21 22 24 25 27 28 29 30 31 32 33 35 36 38 39 40 41 42 42 43 43 44 44
11 11 12 12 12 12 11 11 11 12 13 13 14 15 16 17 18 19 20 21 22 23 25 26 28 29 29 30 31 33 34 35 36 38 39 40 40 41 42 42 42 42 42 42
12 12 11 12 11 11 12 13 13 14 15 16 16 17 18 19 20 21 22 23 24 26 27 27 28 30 31 32 33 34 35 36 37 38 39 39 40 40 40 41 41 41 41 41
11 11 11 12 12 12 13 14 15 16 17 18 19 20 21 22 22 24 25 26 26 28 29 30 31 32 33 33 34 35 36 37 37 38 39 39 39 39 39 40 40 40 41 41
12 12 12 12 13 14 15 16 16 17 18 19 20 21 22 23 24 25 26 27 28 29 31 32 33 33 34 34 35 36 36 37 37 38 38 38 39 39 39 40 40 40 41 41
13 14 14 15 15 15 16 17 18 19 20 21 22 23 24 25 26 27 28 29 30 31 32 32 33 34 35 35 36 36 36 37 37 37 37 38 38 39 39 40 40 40 39 38
13 14 15 16 17 18 19 19 20 21 22 23 24 25 26 27 28 29 30 31 31 32 33 33 34 34 34 34 34 35 35 35 36 36 37 37 38 38 38 37 37 37 37 36
Wind_Direction
260 259 257 256 257 257 259 260 260 258 254 249 252 252 250 252 252 246 241 240 238 233 228 225 223 220 218 215 214 213 213 214 215 216 217 218 218 220 223 227 233 238 242 246
260 262 262 261 258 258 258 258 258 256 253 249 247 249 250 250 248 243 244 241 236 234 231 231 227 222 222 221 220 219 219 218 220 221 222 223 225 227 231 235 240 243 247 250
261 263 266 264 261 259 257 255 255 254 253 252 248 244 245 247 243 242 242 241 237 236 237 233 227 226 227 227 225 224 224 223 224 226 228 229 231 233 237 240 243 247 250 252
262 264 266 269 265 261 257 254 253 252 249 246 245 242 240 242 241 241 239 240 237 237 237 233 229 227 228 229 228 227 228 229 229 231 232 234 236 239 242 246 249 252 254 255
262 264 266 266 266 262 257 252 251 249 245 243 242 240 238 239 239 240 238 239 236 236 237 236 232 230 230 230 230 230 231 233 234 234 236 238 241 244 247 250 252 254 256 257
261 263 264 265 264 260 256 251 248 246 242 241 242 241 238 238 238 240 239 240 239 237 238 237 235 233 231 231 232 232 234 236 238 239 240 242 244 248 251 253 256 257 260 261
259 261 264 263 261 258 254 250 245 244 242 240 241 239 237 237 237 238 238 239 239 238 237 238 238 237 235 235 235 235 236 239 243 245 245 247 249 253 255 256 258 260 263 265
257 258 260 260 260 257 254 248 244 243 240 239 239 238 238 238 237 235 237 237 235 235 236 237 239 239 239 240 239 240 241 243 245 247 248 251 252 255 259 260 260 262 266 269
253 255 256 256 256 255 252 248 244 242 240 240 239 239 239 238 237 236 237 237 235 234 236 238 239 240 241 240 240 241 244 245 247 249 251 253 255 257 260 262 265 265 266 269
249 252 253 253 252 252 250 246 244 244 242 239 239 240 240 238 237 237 237 238 237 236 237 239 240 240 240 241 242 244 247 247 249 252 254 255 259 260 261 265 267 268 270 272
246 249 250 250 249 251 247 244 242 241 241 238 240 242 243 241 238 236 237 237 238 235 234 237 238 237 238 241 243 246 248 250 252 253 257 260 262 263 263 265 268 271 272 274
244 246 248 249 251 250 248 244 241 241 240 239 239 239 240 240 238 236 236 235 237 236 234 236 236 237 239 242 246 249 250 252 254 257 260 262 263 266 267 267 270 272 274 276
241 243 246 245 245 246 245 244 240 239 239 238 238 237 238 239 238 234 234 236 237 238 239 240 240 240 241 244 247 249 250 253 255 257 260 263 265 267 269 271 273 275 277 279
239 240 242 242 240 245 247 246 241 240 240 238 236 237 237 237 235 233 234 236 238 239 241 242 242 243 244 245 249 252 254 256 257 259 262 266 268 269 271 273 275 277 279 281
240 244 245 244 246 246 245 241 239 242 243 242 241 239 237 236 234 235 236 238 240 240 241 242 243 245 248 251 252 254 256 259 262 265 267 269 271 273 274 275 277 279 280 281
242 241 243 247 249 251 250 247 241 242 242 242 241 241 240 236 236 238 239 240 240 241 243 245 248 250 252 253 254 257 260 263 266 268 270 273 274 275 276 277 278 279 280 281
242 243 244 246 250 251 249 249 246 243 237 237 238 239 239 236 239 243 244 245 245 247 248 248 250 251 254 256 259 262 265 267 269 271 272 274 276 276 278 279 280 280 281 282
242 241 240 241 242 241 241 242 244 247 245 241 237 239 243 242 245 246 246 248 249 253 255 255 255 255 258 261 263 265 267 269 272 274 276 277 278 280 281 282 283 284 285 286
234 237 234 235 237 237 240 242 244 248 250 251 252 251 255 256 254 252 252 255 256 259 261 262 264 265 267 269 270 271 273 274 277 278 279 280 281 282 284 285 286 286 287 288
230 231 227 229 232 232 236 240 244 248 252 255 257 260 263 263 261 261 262 264 264 264 265 267 269 272 274 274 274 275 277 278 278 279 280 281 283 285 285 286 287 288 289 289
229 227 225 229 231 230 234 240 243 250 257 258 260 264 267 268 268 268 269 270 269 269 271 271 274 275 276 277 278 279 280 281 282 282 283 283 284 285 286 287 288 289 289 290
223 225 228 233 236 240 243 247 252 256 260 262 266 267 269 271 273 275 276 276 275 275 276 277 277 277 278 279 280 281 282 283 284 284 285 286 287 288 289 290 291 291 292 293
230 231 234 237 238 241 245 251 257 261 264 268 270 271 273 276 277 279 280 280 281 281 282 283 282 282 282 283 283 284 285 285 286 287 287 288 289 289 290 291 292 292 293 293
232 234 237 240 242 246 250 257 263 265 268 271 273 275 276 278 280 281 282 284 284 285 285 286 286 286 286 286 286 287 287 287 287 288 289 289 289 289 290 291 293 293 294 295
234 239 243 248 253 256 260 264 268 271 273 275 277 278 279 280 281 282 283 284 284 284 285 286 286 286 287 287 288 288 288 288 289 290 290 291 291 291 291 292 293 294 295 296
243 246 250 254 259 263 266 269 271 273 274 276 277 278 279 280 281 282 283 284 285 286 286 287 287 288 288 288 288 289 289 290 290 291 291 292 292 292 292 293 295 295 296 297
253 256 258 262 265 267 270 272 274 275 277 278 279 281 282 283 284 284 285 286 288 288 288 288 289 289 289 289 290 290 291 292 292 293 293 293 293 293 294 295 295 296 297 298
Height
5773 5774 5775 5776 5777 5778 5778 5780 5781 5785 5787 5790 5792 5794 5795 5797 5798 5799 5800 5801 5802 5803 5805 5807 5808 5810 5812 5813 5815 5817 5819 5821 5824 5826 5829 5831 5834 5836 5838 5840 5842 5844 5846 5847
5766 5767 5768 5769 5770 5771 5771 5773 5775 5778 5781 5784 5787 5789 5791 5793 5794 5796 5797 5798 5799 5800 5802 5804 5806 5808 5809 5811 5812 5814 5817 5819 5821 5824 5826 5828 5831 5833 5835 5837 5838 5840 5841 5843
5759 5760 5760 5761 5763 5764 5765 5766 5769 5771 5776 5778 5780 5783 5786 5788 5790 5792 5793 5795 5796 5798 5799 5801 5803 5804 5806 5808 5810 5812 5814 5816 5818 5820 5823 5825 5827 5829 5831 5832 5834 5835 5836 5838
5751 5753 5753 5757 5756 5757 5757 5760 5762 5765 5768 5771 5773 5776 5780 5783 5785 5787 5789 5790 5792 5794 5795 5797 5799 5800 5802 5804 5806 5808 5810 5812 5814 5816 5818 5820 5822 5824 5826 5827 5828 5829 5831 5831
5743 5744 5746 5749 5749 5750 5751 5753 5756 5758 5761 5764 5767 5770 5774 5777 5779 5781 5783 5785 5787 5789 5791 5793 5794 5796 5798 5800 5802 5804 5806 5808 5810 5812 5813 5815 5817 5819 5820 5822 5823 5824 5824 5825
5736 5737 5739 5743 5743 5743 5746 5747 5750 5752 5755 5758 5761 5764 5768 5770 5773 5775 5777 5779 5781 5784 5786 5788 5790 5792 5794 5796 5798 5800 5802 5804 5805 5806 5808 5810 5811 5813 5814 5815 5816 5817 5817 5818
5730 5731 5733 5735 5736 5738 5741 5743 5744 5746 5748 5751 5754 5758 5761 5764 5766 5768 5770 5773 5775 5778 5780 5783 5785 5787 5789 5791 5793 5794 5796 5798 5799 5801 5802 5804 5805 5806 5807 5808 5808 5809 5810 5810
5725 5726 5729 5729 5730 5732 5734 5735 5737 5739 5741 5744 5747 5751 5754 5757 5759 5762 5764 5766 5768 5771 5774 5776 5779 5781 5784 5785 5787 5788 5790 5791 5793 5794 5796 5797 5798 5799 5800 5800 5801 5801 5801 5801
5720 5723 5722 5723 5724 5726 5727 5729 5730 5733 5735 5738 5741 5744 5747 5750 5752 5755 5757 5759 5761 5764 5767 5769 5772 5774 5777 5779 5780 5782 5784 5785 5786 5787 5789 5790 5791 5791 5792 5792 5792 5792 5793 5793
5715 5716 5717 5718 5719 5720 5721 5723 5724 5726 5729 5732 5734 5737 5740 5742 5745 5748 5750 5752 5754 5756 5759 5762 5764 5767 5770 5772 5773 5775 5777 5778 5779 5780 5781 5782 5783 5783 5784 5784 5784 5784 5784 5783
5710 5711 5712 5713 5713 5714 5716 5717 5719 5721 5723 5725 5727 5730 5733 5735 5738 5740 5743 5744 5746 5749 5751 5754 5757 5760 5762 5764 5766 5768 5770 5771 5772 5773 5774 5774 5774 5775 5775 5775 5775 5775 5774 5773
5705 5706 5707 5708 5709 5709 5710 5712 5713 5715 5717 5719 5721 5723 5726 5728 5730 5733 5735 5737 5739 5742 5744 5747 5749 5752 5754 5757 5759 5760 5762 5763 5765 5765 5766 5766 5766 5766 5766 5766 5766 5765 5764 5763
5701 5701 5702 5703 5703 5704 5705 5706 5708 5709 5711 5713 5715 5717 5719 5721 5724 5726 5728 5730 5732 5735 5738 5740 5742 5744 5746 5749 5751 5752 5754 5755 5756 5757 5757 5757 5757 5757 5757 5757 5756 5755 5754 5753
5697 5697 5698 5699 5699 5700 5701 5702 5703 5705 5706 5708 5710 5711 5713 5715 5718 5720 5722 5724 5726 5728 5730 5732 5734 5736 5738 5740 5742 5743 5745 5746 5747 5748 5748 5748 5748 5747 5747 5746 5745 5744 5743 5741
5692 5693 5694 5695 5695 5696 5697 5698 5699 5700 5702 5703 5704 5706 5708 5710 5712 5715 5716 5718 5720 5722 5724 5725 5727 5728 5731 5732 5734 5735 5737 5738 5738 5738 5738 5738 5738 5737 5736 5735 5734 5733 5731 5730
5689 5690 5691 5691 5692 5693 5694 5694 5696 5697 5698 5699 5700 5702 5704 5706 5708 5710 5711 5713 5715 5716 5718 5719 5721 5722 5724 5725 5726 5727 5728 5729 5729 5729 5729 5728 5728 5727 5726 5725 5723 5722 5720 5717
5686 5687 5688 5689 5690 5690 5691 5692 5693 5693 5694 5696 5697 5699 5701 5702 5703 5704 5706 5708 5709 5711 5712 5713 5714 5715 5716 5717 5718 5719 5719 5720 5720 5720 5719 5718 5717 5716 5715 5714 5712 5710 5707 5705
5682 5683 5685 5686 5687 5688 5689 5690 5690 5691 5692 5693 5694 5695 5697 5698 5699 5700 5701 5702 5704 5705 5706 5707 5707 5708 5709 5709 5710 5710 5711 5711 5710 5710 5708 5707 5706 5705 5704 5702 5699 5697 5695 5692
5679 5680 5682 5683 5684 5685 5686 5687 5688 5689 5690 5690 5691 5692 5693 5694 5695 5696 5697 5698 5699 5700 5700 5701 5701 5701 5701 5702 5702 5702 5701 5701 5700 5699 5698 5696 5695 5694 5692 5690 5687 5685 5682 5679
5676 5677 5679 5680 5681 5682 5684 5685 5686 5686 5687 5688 5689 5689 5690 5691 5691 5692 5692 5693 5693 5694 5694 5694 5694 5694 5694 5694 5694 5693 5692 5691 5690 5689 5687 5686 5684 5682 5680 5677 5674 5672 5668 5665
5673 5674 5676 5677 5679 5680 5681 5682 5683 5683 5684 5685 5686 5686 5687 5687 5687 5687 5688 5688 5688 5688 5688 5687 5687 5686 5686 5685 5684 5684 5683 5681 5680 5678 5677 5675 5672 5670 5667 5664 5661 5658 5655 5652
5669 5671 5672 5674 5675 5676 5678 5679 5679 5680 5681 5681 5682 5682 5683 5683 5682 5682 5682 5682 5681 5681 5680 5680 5679 5678 5677 5676 5675 5674 5672 5671 5669 5667 5665 5663 5660 5657 5655 5652 5649 5645 5642 5639
5666 5668 5669 5670 5672 5673 5674 5675 5676 5676 5677 5677 5677 5677 5677 5677 5677 5676 5676 5675 5674 5674 5673 5671 5670 5669 5668 5666 5665 5663 5661 5660 5658 5655 5653 5650 5648 5645 5642 5639 5636 5633 5630 5626
5663 5664 5665 5667 5668 5669 5670 5671 5671 5671 5672 5672 5672 5672 5671 5671 5670 5669 5668 5667 5666 5665 5664 5663 5661 5660 5658 5657 5655 5653 5651 5649 5646 5644 5641 5639 5636 5633 5630 5627 5624 5621 5618 5614
5659 5661 5662 5663 5664 5665 5665 5666 5666 5666 5666 5666 5666 5665 5665 5664 5663 5662 5661 5660 5659 5657 5656 5654 5652 5650 5649 5647 5644 5642 5640 5637 5635 5632 5629 5627 5624 5621 5619 5616 5613 5609 5606 5602
5656 5657 5658 5659 5660 5660 5660 5661 5661 5660 5660 5660 5659 5659 5658 5657 5656 5655 5653 5652 5650 5648 5646 5645 5643 5641 5638 5636 5634 5631 5629 5626 5623 5621 5618 5615 5612 5610 5607 5604 5601 5597 5594 5590
5652 5653 5654 5654 5655 5655 5655 5655 5655 5654 5654 5653 5652 5651 5650 5649 5648 5646 5644 5643 5641 5639 5637 5635 5632 5630 5628 5625 5623 5620 5618 5615 5612 5609 5607 5604 5601 5598 5595 5592 5589 5586 5583 5579